FW0878 Weather Reports


time (UTC)temp
C
wind
direction
speed
KPH
gust
KPH
rain 1hr
cm
rain 24hr
cm
rain mn
cm
humidity
%
barometer
mb
20260505101807 15 248 1.6 4.8 0.00 0.03 0.00 66 1022.7
20260505101307 15 270 0.0 1.6 0.00 0.03 0.00 66 1022.8
20260505100807 15 270 0.0 3.2 0.00 0.03 0.00 66 1022.9
20260505100307 15 291 1.6 4.8 0.00 0.03 0.00 66 1022.7
20260505095807 15 247 1.6 3.2 0.00 0.03 0.00 67 1022.9
20260505094808 15 226 1.6 3.2 0.00 0.03 0.00 66 1022.7
20260505094307 15 249 0.0 4.8 0.00 0.03 0.00 66 1022.6
20260505093807 15 289 1.6 3.2 0.00 0.03 0.00 66 1022.7
20260505092808 15 269 0.0 4.8 0.00 0.03 0.00 65 1022.7
20260505092308 15 227 1.6 4.8 0.00 0.03 0.00 65 1022.6
20260505091807 15 248 1.6 4.8 0.00 0.03 0.00 65 1022.7
20260505091307 15 204 1.6 4.8 0.00 0.03 0.00 65 1022.7
20260505090307 15 246 1.6 8.0 0.00 0.03 0.00 64 1022.6
20260505085807 15 269 1.6 3.2 0.00 0.03 0.00 64 1022.5
20260505084808 15 269 0.0 4.8 0.00 0.03 0.00 63 1022.4
20260505084308 15 250 1.6 3.2 0.00 0.03 0.00 62 1022.4
20260505083807 15 271 1.6 4.8 0.00 0.03 0.00 61 1022.3
20260505083308 15 248 1.6 3.2 0.00 0.03 0.00 61 1022.2
20260505082807 15 290 1.6 1.6 0.00 0.03 0.00 61 1022.4
20260505082307 15 294 1.6 1.6 0.00 0.03 0.00 61 1022.2
20260505081809 15 293 0.0 1.6 0.00 0.03 0.00 61 1022.2
20260505080308 15 292 1.6 1.6 0.00 0.03 0.00 60 1021.8
20260505075807 16 272 1.6 3.2 0.00 0.03 0.00 59 1021.8
20260505075307 16 291 1.6 3.2 0.00 0.03 0.00 60 1021.8
20260505074807 16 290 1.6 3.2 0.00 0.03 0.00 60 1021.6
20260505074308 16 292 1.6 3.2 0.00 0.03 0.00 59 1021.7
20260505073807 16 312 1.6 3.2 0.00 0.03 0.00 59 1021.6
20260505072807 16 315 1.6 4.8 0.00 0.03 0.00 59 1021.3
20260505072308 16 250 1.6 3.2 0.00 0.03 0.00 61 1021.3
20260505071806 16 316 1.6 4.8 0.00 0.03 0.00 61 1021.2
20260505070807 16 357 1.6 3.2 0.00 0.03 0.00 61 1021.2
20260505070306 16 270 1.6 4.8 0.00 0.03 0.00 60 1021.3
20260505065808 16 268 1.6 3.2 0.00 0.03 0.00 60 1021.4
20260505065308 16 255 1.6 8.0 0.00 0.03 0.00 60 1021.3
20260505064807 16 90 1.6 4.8 0.00 0.03 0.00 59 1021.4
20260505064307 16 228 1.6 8.0 0.00 0.03 0.00 59 1021.1
20260505063807 16 269 3.2 8.0 0.00 0.03 0.00 59 1021.2
20260505063307 16 290 1.6 4.8 0.00 0.03 0.00 58 1021.3
20260505062807 16 288 1.6 3.2 0.00 0.03 0.00 58 1021.1
20260505062307 16 272 1.6 8.0 0.00 0.03 0.00 59 1021.1
20260505061806 16 225 3.2 8.0 0.00 0.03 0.00 59 1021.1
20260505061307 16 248 1.6 4.8 0.00 0.03 0.00 59 1021.1
20260505060807 16 271 1.6 4.8 0.00 0.03 0.00 60 1021.2
20260505060307 16 270 1.6 11.3 0.00 0.03 0.00 60 1021.1
20260505055807 16 291 3.2 9.7 0.00 0.03 0.00 60 1021.1
20260505055308 16 272 3.2 4.8 0.00 0.03 0.00 58 1021.1
20260505054807 16 248 1.6 8.0 0.00 0.03 0.00 59 1020.8
20260505054308 16 273 3.2 8.0 0.00 0.03 0.00 58 1020.9
20260505053807 16 318 3.2 8.0 0.00 0.03 0.00 59 1020.9
20260505053307 16 248 1.6 9.7 0.00 0.03 0.00 59 1020.7
20260505052808 16 249 3.2 9.7 0.00 0.03 0.00 60 1020.8
20260505052307 16 337 3.2 9.7 0.00 0.03 0.00 60 1020.6
20260505051806 16 358 4.8 11.3 0.00 0.03 0.00 60 1020.5
20260505050808 16 311 4.8 12.9 0.00 0.03 0.00 61 1020.6
20260505050307 16 270 3.2 12.9 0.00 0.03 0.00 61 1020.6
20260505041307 16 201 4.8 9.7 0.00 0.03 0.00 60 1020.2
20260505040307 16 203 4.8 11.3 0.00 0.03 0.00 60 1020.2
20260505035307 16 248 4.8 16.1 0.00 0.03 0.00 60 1020.2
20260505034307 16 137 4.8 14.5 0.00 0.03 0.00 58 1020.1
20260505033807 16 293 8.0 14.5 0.00 0.03 0.00 57 1020.2
20260505033308 17 247 4.8 12.9 0.00 0.03 0.00 57 1020.3
20260505032806 16 268 6.4 12.9 0.00 0.03 0.00 57 1020.0
20260505032307 16 183 4.8 14.5 0.00 0.03 0.00 57 1020.1
20260505031806 16 225 4.8 12.9 0.00 0.03 0.00 58 1020.1
20260505031307 17 289 8.0 14.5 0.00 0.03 0.00 56 1020.1
20260505030807 17 267 6.4 12.9 0.00 0.03 0.00 55 1020.1
20260505030307 17 224 4.8 11.3 0.00 0.03 0.00 54 1020.1
20260505025807 18 270 4.8 12.9 0.00 0.03 0.00 52 1019.9
20260505025308 17 224 3.2 12.9 0.00 0.03 0.00 54 1020.1
20260505024807 16 269 3.2 12.9 0.00 0.03 0.00 57 1020.0
20260505024307 16 270 4.8 12.9 0.00 0.03 0.00 57 1020.1
20260505023807 16 250 4.8 11.3 0.00 0.03 0.00 58 1020.2
20260505023307 16 224 4.8 14.5 0.00 0.03 0.00 57 1020.4
20260505022807 16 247 4.8 11.3 0.00 0.03 0.00 57 1020.3
20260505022307 17 207 8.0 14.5 0.00 0.03 0.00 55 1020.2
20260505021806 17 290 8.0 14.5 0.00 0.03 0.00 54 1020.2
20260505021307 16 205 6.4 12.9 0.00 0.03 0.00 57 1020.3
20260505020807 16 268 6.4 12.9 0.00 0.03 0.00 57 1020.4
20260505020307 16 248 6.4 16.1 0.00 0.03 0.00 57 1020.5
20260505015807 17 246 8.0 19.3 0.00 0.03 0.00 55 1020.4
20260505014308 17 268 4.8 11.3 0.00 0.03 0.00 56 1020.5
20260505013807 16 226 1.6 12.9 0.00 0.03 0.00 58 1020.7
20260505012807 16 269 8.0 19.3 0.00 0.03 0.00 59 1020.9
20260505011307 16 246 8.0 16.1 0.00 0.03 0.00 59 1021.0
20260505010808 16 291 4.8 16.1 0.00 0.03 0.00 57 1020.9
20260505010307 16 204 3.2 11.3 0.00 0.03 0.00 58 1020.8
20260505005807 15 340 4.8 14.5 0.00 0.03 0.00 58 1020.7
20260505005307 15 268 4.8 11.3 0.00 0.03 0.00 59 1020.8
20260505004308 14 292 8.0 22.5 0.00 0.03 0.00 63 1020.8
20260505003807 14 205 4.8 16.1 0.00 0.03 0.00 64 1020.9
20260505002807 14 248 6.4 14.5 0.00 0.03 0.00 65 1020.7
20260505002307 14 269 6.4 14.5 0.00 0.03 0.00 65 1020.5
20260505001807 14 204 6.4 14.5 0.00 0.03 0.00 65 1020.5
20260505001307 14 268 6.4 16.1 0.00 0.03 0.00 64 1020.5
20260505000806 14 250 6.4 14.5 0.00 0.03 0.00 65 1020.1
20260505000306 15 271 6.4 14.5 0.00 0.03 0.00 66 1020.4
20260504235808 14 71 6.4 19.3 0.00 0.03 0.00 66 1020.2
20260504234806 14 138 8.0 14.5 0.00 0.03 0.00 68 1020.1
20260504234307 14 335 4.8 14.5 0.00 0.03 0.00 69 1020.1
20260504233808 15 269 4.8 14.5 0.00 0.03 0.00 68 1020.2
20260504232807 15 293 4.8 12.9 0.00 0.03 0.00 68 1020.0
20260504232307 14 294 4.8 14.5 0.00 0.03 0.00 69 1020.0
20260504231307 14 270 8.0 12.9 0.00 0.03 0.00 70 1019.9
20260504230807 14 292 4.8 12.9 0.00 0.03 0.00 71 1019.8
20260504225307 14 228 4.8 9.7 0.03 0.03 0.03 74 1019.7
20260504224807 13 247 1.6 9.7 0.03 0.03 0.03 75 1019.6
20260504224307 13 315 3.2 9.7 0.03 0.03 0.03 76 1019.5
20260504223807 13 291 3.2 11.3 0.03 0.03 0.03 77 1019.5
20260504223307 13 226 3.2 8.0 0.00 0.00 0.00 78 1019.4
20260504222807 13 226 1.6 9.7 0.00 0.00 0.00 80 1019.4
20260504222308 12 248 3.2 9.7 0.00 0.00 0.00 81 1019.3
20260504221807 12 310 3.2 9.7 0.00 0.00 0.00 83 1019.2
20260504221308 12 291 1.6 3.2 0.00 0.00 0.00 85 1019.1
20260504220808 12 292 1.6 3.2 0.00 0.00 0.00 86 1019.0
20260504220308 11 161 1.6 3.2 0.00 0.00 0.00 87 1019.0
20260504215807 11 291 1.6 1.6 0.00 0.00 0.00 87 1019.0
20260504215307 11 291 0.0 1.6 0.00 0.00 0.00 87 1018.9
20260504214307 11 315 0.0 1.6 0.00 0.00 0.00 88 1018.8
20260504213807 11 292 0.0 1.6 0.00 0.00 0.00 87 1018.6
20260504213308 11 0 0.0 1.6 0.00 0.00 0.00 87 1018.5
20260504212807 11 251 0.0 1.6 0.00 0.00 0.00 87 1018.6
20260504212307 11 292 0.0 1.6 0.00 0.00 0.00 87 1018.5
20260504211807 11 291 1.6 3.2 0.00 0.00 0.00 87 1018.2
20260504211307 11 291 0.0 3.2 0.00 0.00 0.00 87 1018.3
20260504210807 11 269 1.6 4.8 0.00 0.00 0.00 87 1017.9
20260504210307 11 273 1.6 8.0 0.00 0.00 0.00 87 1018.0
20260504205807 11 271 1.6 8.0 0.00 0.00 0.00 88 1017.9
20260504205307 11 225 1.6 4.8 0.00 0.00 0.00 88 1017.8
20260504204807 11 249 1.6 4.8 0.00 0.00 0.00 88 1017.7
20260504203807 11 270 1.6 4.8 0.00 0.00 0.00 89 1017.6
20260504203307 11 270 1.6 4.8 0.00 0.00 0.00 89 1017.6
20260504202807 11 270 1.6 3.2 0.00 0.00 0.00 89 1017.7
20260504202307 12 317 1.6 3.2 0.00 0.00 0.00 89 1017.3
20260504201807 12 248 1.6 3.2 0.00 0.00 0.00 89 1017.2
20260504201307 12 336 1.6 3.2 0.00 0.00 0.00 89 1017.2
20260504200807 12 17 1.6 4.8 0.00 0.00 0.00 89 1017.1
20260504200307 12 337 1.6 3.2 0.00 0.00 0.00 89 1017.4
20260504195807 12 271 1.6 3.2 0.00 0.00 0.00 89 1017.1
20260504194807 12 43 1.6 3.2 0.00 0.00 0.00 89 1017.0
20260504194308 12 250 1.6 3.2 0.00 0.00 0.00 89 1016.8
20260504193807 12 270 0.0 3.2 0.00 0.00 0.00 88 1016.7
20260504193307 12 289 1.6 3.2 0.00 0.00 0.00 88 1016.8
20260504192807 12 291 0.0 1.6 0.00 0.00 0.00 88 1016.6
20260504192307 12 274 1.6 3.2 0.00 0.00 0.00 88 1016.7
20260504191806 12 337 0.0 1.6 0.00 0.00 0.00 88 1016.7
20260504191307 12 271 1.6 3.2 0.00 0.00 0.00 88 1016.5
20260504190808 12 269 1.6 4.8 0.00 0.00 0.00 88 1016.8
20260504185807 12 224 1.6 11.3 0.00 0.00 0.00 87 1016.3
20260504185308 12 292 1.6 8.0 0.00 0.00 0.00 87 1016.3
20260504184806 12 285 1.6 4.8 0.00 0.00 0.00 86 1016.4
20260504183807 12 290 1.6 4.8 0.00 0.00 0.00 84 1016.2
20260504182807 12 269 1.6 8.0 0.00 0.00 0.00 82 1015.9
20260504182307 12 250 1.6 9.7 0.00 0.00 0.00 82 1015.8
20260504181807 12 249 3.2 9.7 0.00 0.00 0.00 83 1015.9
20260504181307 12 294 1.6 9.7 0.00 0.00 0.00 82 1015.6
20260504180808 12 336 1.6 4.8 0.00 0.00 0.00 82 1015.6
20260504180307 12 289 3.2 4.8 0.00 0.00 0.00 82 1015.6
20260504175807 12 273 3.2 11.3 0.00 0.00 0.00 82 1015.5
20260504174807 12 251 1.6 4.8 0.00 0.00 0.00 82 1015.5
20260504174307 12 286 1.6 11.3 0.00 0.00 0.00 81 1015.4
20260504173807 12 313 1.6 4.8 0.00 0.00 0.00 81 1015.3
20260504173307 12 290 3.2 11.3 0.00 0.00 0.00 82 1015.4
20260504172808 12 249 1.6 4.8 0.00 0.00 0.00 82 1015.4
20260504172307 12 270 1.6 8.0 0.00 0.00 0.00 82 1015.3
20260504171806 12 314 1.6 4.8 0.00 0.00 0.00 82 1015.2
20260504171308 12 248 1.6 8.0 0.00 0.00 0.00 82 1015.3
20260504170807 12 249 1.6 4.8 0.00 0.00 0.00 82 1015.3
20260504170307 12 271 1.6 3.2 0.00 0.00 0.00 81 1015.3
20260504160308 13 297 1.6 3.2 0.00 0.00 0.00 79 1014.8
20260504150807 12 268 1.6 4.8 0.00 0.00 0.00 81 1014.6
20260504150308 12 337 1.6 3.2 0.00 0.00 0.00 80 1014.4
20260504141307 13 272 1.6 4.8 0.00 0.00 0.00 79 1014.2
20260504140807 13 311 3.2 8.0 0.00 0.00 0.00 78 1014.2
20260504140308 13 135 1.6 8.0 0.00 0.00 0.00 78 1014.0
20260504130308 14 227 1.6 4.8 0.00 0.00 0.00 75 1013.8
20260504120307 14 132 3.2 8.0 0.00 0.00 0.00 75 1013.2